TimeEST,TemperatureF,Dew PointF,Humidity,Sea Level PressureIn,VisibilityMPH,Wind Direction,Wind SpeedMPH,Gust SpeedMPH,PrecipitationIn,Events,Conditions,WindDirDegrees,DateUTC
12:53 AM,55.0,45.0,69,30.39,10.0,South,6.9,-,N/A,,Clear,170,2012-11-12 05:53:00
1:53 AM,53.1,45.0,74,30.39,10.0,SSW,4.6,-,N/A,,Clear,200,2012-11-12 06:53:00
2:53 AM,51.1,45.0,80,30.38,10.0,South,5.8,-,N/A,,Clear,180,2012-11-12 07:53:00
3:53 AM,51.1,46.0,83,30.38,10.0,South,4.6,-,N/A,,Clear,190,2012-11-12 08:53:00
4:53 AM,50.0,46.0,86,30.38,10.0,South,5.8,-,N/A,,Clear,180,2012-11-12 09:53:00
5:53 AM,50.0,46.9,89,30.37,10.0,South,6.9,-,N/A,,Clear,190,2012-11-12 10:53:00
6:53 AM,51.1,48.0,89,30.37,10.0,South,8.1,-,N/A,,Clear,180,2012-11-12 11:53:00
7:53 AM,53.1,48.9,86,30.37,10.0,Calm,Calm,-,N/A,,Clear,0,2012-11-12 12:53:00
8:53 AM,55.9,51.1,84,30.35,10.0,South,5.8,-,N/A,,Clear,180,2012-11-12 13:53:00
9:53 AM,57.0,51.1,81,30.36,10.0,South,6.9,-,N/A,,Partly Cloudy,180,2012-11-12 14:53:00
10:53 AM,59.0,52.0,78,30.35,10.0,South,6.9,-,N/A,,Clear,190,2012-11-12 15:53:00
11:53 AM,61.0,53.1,75,30.32,10.0,South,5.8,-,N/A,,Mostly Cloudy,180,2012-11-12 16:53:00
12:53 PM,63.0,54.0,72,30.29,10.0,Variable,3.5,-,N/A,,Partly Cloudy,0,2012-11-12 17:53:00
1:15 PM,62.6,53.6,72,30.28,10.0,Calm,Calm,-,N/A,,Mostly Cloudy,0,2012-11-12 18:15:00
1:40 PM,64.4,53.6,68,30.27,10.0,Calm,Calm,-,N/A,,Overcast,0,2012-11-12 18:40:00
1:53 PM,64.0,55.0,73,30.25,10.0,SSW,3.5,-,N/A,,Overcast,210,2012-11-12 18:53:00
2:53 PM,66.9,55.9,68,30.21,10.0,South,6.9,-,N/A,,Overcast,180,2012-11-12 19:53:00
3:53 PM,66.9,55.0,66,30.20,10.0,South,11.5,20.7,N/A,,Overcast,180,2012-11-12 20:53:00
4:53 PM,66.0,55.9,70,30.19,10.0,SSW,12.7,19.6,N/A,,Overcast,200,2012-11-12 21:53:00
5:16 PM,64.4,57.2,77,30.20,2.5,South,11.5,-,0.00,Rain,Light Rain,190,2012-11-12 22:16:00
5:50 PM,60.8,57.2,88,30.20,4.0,SSW,10.4,-,0.00,,Overcast,200,2012-11-12 22:50:00
5:53 PM,61.0,57.9,90,30.20,4.0,SSW,9.2,-,0.00,,Overcast,200,2012-11-12 22:53:00
6:53 PM,61.0,57.9,90,30.19,9.0,SSW,12.7,-,0.00,Rain,Light Rain,200,2012-11-12 23:53:00
7:53 PM,61.0,57.9,90,30.18,10.0,SSW,6.9,-,N/A,,Scattered Clouds,200,2012-11-13 00:53:00
8:53 PM,61.0,59.0,93,30.15,10.0,SSW,8.1,-,0.00,Rain,Light Rain,200,2012-11-13 01:53:00
9:53 PM,61.0,59.0,93,30.14,8.0,Calm,Calm,-,0.00,Rain,Light Rain,0,2012-11-13 02:53:00
10:53 PM,61.0,57.9,90,30.12,9.0,SSE,6.9,-,0.01,,Overcast,150,2012-11-13 03:53:00
11:12 PM,60.8,59.0,94,30.12,4.0,South,5.8,-,0.02,Rain,Light Rain,180,2012-11-13 04:12:00
11:53 PM,61.0,57.9,90,30.11,9.0,South,12.7,-,0.02,,Overcast,190,2012-11-13 04:53:00